This is the latest recevied weather packets stored in our database for station/object W5HKR. If no packets are shown the sender has not sent any weather packets the latest 10 day(s).
| Time | Temp. | Humidity | Pressure | Rain* | Wind** | Luminosity | Snow |
|---|---|---|---|---|---|---|---|
| 1777493604 | 18.33° C | 91% | 990.6 hPa | 0 mm | - | - | - |
| 1777493306 | 26.11° C | 85% | 983.3 hPa | 0 mm | - | - | - |
| 1777493077 | 18.33° C | 91% | 990.6 hPa | 0 mm | - | - | - |
| 1777493005 | 26.11° C | 85% | 982.4 hPa | 0 mm | - | - | - |
| 1777492704 | 26.11° C | 85% | 982.5 hPa | 0 mm | - | - | - |
| 1777492404 | 26.11° C | 87% | 982.7 hPa | 0 mm | - | - | - |
| 1777492103 | 18.33° C | 91% | 990.6 hPa | 0 mm | - | - | - |
| 1777491996 | 26.11° C | 86% | 983.1 hPa | 0 mm | - | - | - |
| 1777491803 | 18.33° C | 91% | 990.6 hPa | 0 mm | - | - | - |
| 1777491505 | 18.33° C | 91% | 990.6 hPa | 0 mm | - | - | - |
| 1777491205 | 26.11° C | 83% | 983.4 hPa | 0 mm | - | - | - |
| 1777490905 | 26.67° C | 83% | 983.4 hPa | 0 mm | - | - | - |
| 1777490605 | 18.33° C | 91% | 990.6 hPa | 0 mm | - | - | - |
| 1777490304 | 26.67° C | 82% | 983.5 hPa | 0 mm | - | - | - |
| 1777490004 | 26.67° C | 82% | 983.4 hPa | 0 mm | - | - | - |
| 1777489835 | 18.33° C | 91% | 990.6 hPa | 0 mm | - | - | - |
| 1777489704 | 26.67° C | 82% | 983.6 hPa | 0 mm | - | - | - |
| 1777489404 | 18.33° C | 91% | 990.6 hPa | 0 mm | - | - | - |
| 1777489104 | 18.33° C | 91% | 990.6 hPa | 0 mm | - | - | - |
| 1777488807 | 27.22° C | 82% | 983.7 hPa | 0 mm | - | - | - |
| 1777488756 | 18.33° C | 91% | 990.6 hPa | 0 mm | - | - | - |
| 1777488504 | 18.33° C | 91% | 990.6 hPa | 0 mm | - | - | - |
| 1777488205 | 27.22° C | 80% | 983.7 hPa | 0 mm | - | - | - |
| 1777487905 | 27.22° C | 80% | 983.7 hPa | 0 mm | - | - | - |
| 1777487676 | 27.22° C | 80% | 983.7 hPa | 0 mm | - | - | - |
* Rain latest hour (hover to see other rain measurements)
** Current wind speed in m/s (hover to see current wind gust speed)